UAE8UW KJFK-OMDB

Flight info

Callsign UAE8UW
Flight time N/A
Altitude 31000
Route DCT MERIT DCT HFD DCT PUT DCT ALLEX N147C RELIC/M085F310 DCT 46N050W 46N040W 4530N03000W 46N020W DCT BUNAV UN536 TIVLU/N0495F310 DCT GALOF/N0482F340 DCT PECNO DCT VALKU/N0479F350 DCT TIS DCT MEBAK DCT GIPNO DCT BALSI DCT OBIGO DCT ROBEX DCT LAPRI/N0483F340 DCT MOGBO/N0480F350 DCT GIKIN DCT IPKAM DCT RUTOM DCT SALUN N705 MMA P751 DASUM Y234 FYM M872 ALMOD/N0491F370 M872 BDB Y214 RAPMA DCT KUVSO DCT RIBOT M550 GOLGU DCT UKRAG G783 ELUDA/N0495F350 G783 ASPED Q308 KIPOK Q568 IMPED IMPED3C
Aircraft B77W/H-SDE1E2E3FGHIJ2J3J4J5M1RWXY/LB1D1

Departure

Time N/A
Airport John F. Kennedy International Airport (KJFK)

Arrival

Time 2026-04-21 16:40
Airport Dubai International Airport (OMDB)
Time Latitude Longitude Altitude Speed Heading
2026-04-21 14:17 26.28193 36.22369 34860 ft 560 kts 118°
2026-04-21 14:17 26.26648 36.26347 34858 ft 561 kts 118°
2026-04-21 14:17 26.25092 36.30347 35005 ft 563 kts 118°
2026-04-21 14:18 26.23535 36.34349 35316 ft 563 kts 118°
2026-04-21 14:18 26.21979 36.38343 35643 ft 562 kts 118°
2026-04-21 14:18 26.20579 36.42414 35900 ft 566 kts 110°
2026-04-21 14:18 26.19659 36.46696 36149 ft 571 kts 101°
2026-04-21 14:19 26.19258 36.51102 36399 ft 574 kts 92°
2026-04-21 14:19 26.19380 36.55541 36617 ft 575 kts 83°
2026-04-21 14:19 26.19966 36.59945 36788 ft 576 kts 77°
2026-04-21 14:20 26.21644 36.68678 36871 ft 577 kts 75°
2026-04-21 14:20 26.23460 36.77350 36851 ft 573 kts 74°
2026-04-21 14:21 26.25281 36.85957 36868 ft 570 kts 74°
2026-04-21 14:21 26.27102 36.94538 36873 ft 568 kts 74°
2026-04-21 14:22 26.28925 37.03108 36874 ft 568 kts 74°
2026-04-21 14:22 26.30754 37.11694 36913 ft 570 kts 74°
2026-04-21 14:23 26.32591 37.20315 36907 ft 573 kts 74°
2026-04-21 14:23 26.33214 37.24683 36864 ft 573 kts 90°
2026-04-21 14:23 26.32746 37.29064 36901 ft 568 kts 110°
2026-04-21 14:23 26.31206 37.33056 36903 ft 555 kts 129°
2026-04-21 14:24 26.28873 37.36406 36911 ft 543 kts 142°
2026-04-21 14:24 26.23296 37.41935 36904 ft 539 kts 147°
2026-04-21 14:25 26.17765 37.47576 36901 ft 545 kts 145°
2026-04-21 14:25 26.12214 37.53364 36879 ft 548 kts 145°
2026-04-21 14:26 26.06643 37.59155 36882 ft 548 kts 145°
2026-04-21 14:26 26.01065 37.64918 36892 ft 547 kts 146°
2026-04-21 14:27 25.95494 37.70654 36889 ft 545 kts 146°
2026-04-21 14:27 25.89945 37.76368 36845 ft 540 kts 145°
2026-04-21 14:28 25.84461 37.81998 36818 ft 535 kts 146°
2026-04-21 14:28 25.78998 37.87596 36859 ft 535 kts 146°
2026-04-21 14:29 25.73505 37.93218 36859 ft 538 kts 146°
2026-04-21 14:29 25.67983 37.98866 36856 ft 542 kts 146°
2026-04-21 14:30 25.62432 38.04540 36849 ft 545 kts 146°
2026-04-21 14:30 25.56849 38.10238 36841 ft 547 kts 146°
2026-04-21 14:31 25.51253 38.15942 36840 ft 547 kts 146°
2026-04-21 14:31 25.45659 38.21640 36835 ft 546 kts 146°
2026-04-21 14:32 25.40075 38.27317 36830 ft 545 kts 146°
2026-04-21 14:32 25.34493 38.32984 36841 ft 544 kts 146°
2026-04-21 14:33 25.28921 38.38633 36845 ft 543 kts 146°
2026-04-21 14:33 25.23350 38.44275 36841 ft 543 kts 146°
2026-04-21 14:34 25.17963 38.50167 36856 ft 552 kts 137°
2026-04-21 14:34 25.13452 38.57032 36848 ft 563 kts 126°
2026-04-21 14:35 25.09648 38.64599 36831 ft 564 kts 124°
2026-04-21 14:35 25.05867 38.72170 36849 ft 563 kts 125°
2026-04-21 14:36 25.02017 38.79696 36856 ft 563 kts 125°
2026-04-21 14:36 24.98148 38.87207 36863 ft 564 kts 125°
2026-04-21 14:37 24.94280 38.94715 36876 ft 563 kts 125°
2026-04-21 14:37 24.91047 39.00942 36874 ft 563 kts 125°
2026-04-21 14:38 24.87150 39.08431 36876 ft 564 kts 125°
2026-04-21 14:38 24.83254 39.15922 36869 ft 564 kts 125°
2026-04-21 14:39 24.79352 39.23412 36884 ft 564 kts 125°
2026-04-21 14:39 24.75449 39.30893 36892 ft 564 kts 126°
2026-04-21 14:40 24.71541 39.38376 36886 ft 564 kts 126°
2026-04-21 14:40 24.67636 39.45851 36887 ft 562 kts 126°
2026-04-21 14:41 24.63731 39.53298 36902 ft 563 kts 126°
2026-04-21 14:41 24.59819 39.60759 36871 ft 563 kts 126°
2026-04-21 14:42 24.56218 39.68418 36894 ft 570 kts 115°
2026-04-21 14:42 24.54004 39.76819 36892 ft 576 kts 102°
2026-04-21 14:43 24.53104 39.85579 36884 ft 578 kts 96°
2026-04-21 14:43 24.52377 39.94370 36887 ft 578 kts 96°
2026-04-21 14:44 24.51576 40.03163 36879 ft 579 kts 97°
2026-04-21 14:44 24.50716 40.11953 36877 ft 579 kts 97°
2026-04-21 14:45 24.49845 40.20737 36892 ft 579 kts 97°
2026-04-21 14:45 24.48985 40.29456 36871 ft 578 kts 97°
2026-04-21 14:46 24.48118 40.38226 36885 ft 578 kts 97°
2026-04-21 14:46 24.47246 40.46988 36873 ft 578 kts 97°
2026-04-21 14:47 24.46368 40.55754 36866 ft 577 kts 97°
2026-04-21 14:47 24.45488 40.64505 36885 ft 577 kts 97°
2026-04-21 14:48 24.44609 40.73257 36898 ft 577 kts 97°
2026-04-21 14:48 24.43727 40.82012 36879 ft 577 kts 97°
2026-04-21 14:49 24.42840 40.90763 36881 ft 577 kts 97°
2026-04-21 14:49 24.41946 40.99519 36869 ft 577 kts 97°
2026-04-21 14:50 24.41049 41.08268 36874 ft 577 kts 97°
2026-04-21 14:50 24.40132 41.17012 36862 ft 577 kts 98°
2026-04-21 14:51 24.39205 41.25752 36874 ft 577 kts 98°
2026-04-21 14:51 24.38275 41.34493 36871 ft 577 kts 98°
2026-04-21 14:52 24.37342 41.43240 36867 ft 577 kts 98°
2026-04-21 14:52 24.36403 41.51988 36869 ft 578 kts 98°
2026-04-21 14:53 24.35459 41.60737 36859 ft 578 kts 98°
2026-04-21 14:53 24.34517 41.69418 36873 ft 578 kts 98°
2026-04-21 14:54 24.33557 41.78225 36839 ft 578 kts 98°
2026-04-21 14:54 24.32077 41.86861 36853 ft 575 kts 109°
2026-04-21 14:55 24.29811 41.95250 36855 ft 574 kts 110°
2026-04-21 14:55 24.27536 42.03568 36842 ft 574 kts 109°
2026-04-21 14:56 24.25295 42.11968 36857 ft 574 kts 109°
2026-04-21 14:56 24.23076 42.20378 36844 ft 574 kts 109°
2026-04-21 14:57 24.20855 42.28776 36853 ft 574 kts 109°
2026-04-21 14:57 24.18623 42.37170 36848 ft 574 kts 109°
2026-04-21 14:58 24.16386 42.45559 36849 ft 574 kts 109°
2026-04-21 14:58 24.14142 42.53952 36854 ft 574 kts 109°
2026-04-21 14:59 24.11896 42.62336 36850 ft 574 kts 109°
2026-04-21 14:59 24.09644 42.70722 36854 ft 574 kts 109°
2026-04-21 15:00 24.07386 42.79111 36863 ft 575 kts 109°
2026-04-21 15:00 24.05122 42.87507 36866 ft 576 kts 109°
2026-04-21 15:01 24.02850 42.95913 36865 ft 576 kts 109°
2026-04-21 15:01 24.00574 43.04323 36850 ft 577 kts 109°
2026-04-21 15:02 23.98295 43.12730 36862 ft 577 kts 109°
2026-04-21 15:02 23.96010 43.21137 36865 ft 577 kts 109°
2026-04-21 15:03 23.93723 43.29533 36859 ft 576 kts 109°
2026-04-21 15:03 23.91432 43.37926 36858 ft 576 kts 109°
2026-04-21 15:04 23.89135 43.46318 36853 ft 576 kts 109°
2026-04-21 15:04 23.86834 43.54703 36853 ft 576 kts 109°
2026-04-21 15:05 23.84531 43.63081 36844 ft 576 kts 109°
2026-04-21 15:05 23.81064 43.75654 36846 ft 576 kts 109°
2026-04-21 15:06 23.78763 43.83982 36823 ft 577 kts 109°
2026-04-21 15:06 23.77022 43.92537 36835 ft 579 kts 97°
2026-04-21 15:07 23.76371 44.01299 36843 ft 579 kts 94°
2026-04-21 15:07 23.75809 44.10059 36829 ft 578 kts 94°
2026-04-21 15:08 23.75182 44.18809 36864 ft 578 kts 95°
2026-04-21 15:08 23.74513 44.27558 36852 ft 578 kts 95°
2026-04-21 15:09 23.73838 44.36301 36859 ft 578 kts 95°
2026-04-21 15:09 23.73163 44.45052 36857 ft 579 kts 95°
2026-04-21 15:10 23.72487 44.53796 36871 ft 578 kts 95°
2026-04-21 15:10 23.71806 44.62531 36859 ft 577 kts 95°
2026-04-21 15:11 23.71121 44.71255 36866 ft 576 kts 95°
2026-04-21 15:11 23.70433 44.79957 36873 ft 575 kts 95°
2026-04-21 15:12 23.69740 44.88650 36866 ft 575 kts 95°
2026-04-21 15:12 23.69040 44.97335 36879 ft 575 kts 95°
2026-04-21 15:13 23.68334 45.06021 36857 ft 574 kts 95°
2026-04-21 15:13 23.67626 45.14698 36848 ft 574 kts 95°
2026-04-21 15:14 23.66913 45.23372 36847 ft 574 kts 95°
2026-04-21 15:14 23.66198 45.32040 36829 ft 573 kts 95°
2026-04-21 15:15 23.65480 45.40702 36831 ft 573 kts 95°
2026-04-21 15:15 23.64762 45.49297 36815 ft 574 kts 95°
2026-04-21 15:16 23.64033 45.57970 36804 ft 574 kts 95°
2026-04-21 15:16 23.63300 45.66633 36793 ft 574 kts 95°
2026-04-21 15:17 23.62563 45.75298 36790 ft 574 kts 95°
2026-04-21 15:17 23.61822 45.83970 36786 ft 574 kts 95°
2026-04-21 15:18 23.61076 45.92644 36784 ft 574 kts 95°
2026-04-21 15:18 23.60325 46.01311 36787 ft 574 kts 95°
2026-04-21 15:19 23.59569 46.09975 36786 ft 575 kts 95°
2026-04-21 15:19 23.58808 46.18651 36798 ft 575 kts 95°
2026-04-21 15:20 23.58041 46.27339 36802 ft 576 kts 95°
2026-04-21 15:20 23.57265 46.36046 36798 ft 577 kts 95°
2026-04-21 15:21 23.56487 46.44760 36799 ft 578 kts 95°
2026-04-21 15:21 23.55703 46.53472 36801 ft 577 kts 95°
2026-04-21 15:22 23.54905 46.62173 36786 ft 577 kts 95°
2026-04-21 15:22 23.54102 46.70857 36790 ft 576 kts 95°
2026-04-21 15:23 23.53294 46.79536 36782 ft 575 kts 95°
2026-04-21 15:23 23.52482 46.88207 36779 ft 575 kts 95°
2026-04-21 15:24 23.51805 46.95415 36777 ft 575 kts 95°
2026-04-21 15:24 23.50988 47.04073 36775 ft 575 kts 95°
2026-04-21 15:25 23.50029 47.14152 36755 ft 575 kts 95°
2026-04-21 15:25 23.49199 47.22815 36776 ft 575 kts 95°
2026-04-21 15:26 23.48501 47.30072 36773 ft 575 kts 95°
2026-04-21 15:26 23.47669 47.38671 36777 ft 575 kts 95°
2026-04-21 15:27 23.46828 47.47323 36780 ft 575 kts 95°
2026-04-21 15:27 23.45983 47.55974 36778 ft 574 kts 95°
2026-04-21 15:28 23.45139 47.64626 36785 ft 574 kts 95°
2026-04-21 15:28 23.44294 47.73269 36774 ft 574 kts 95°
2026-04-21 15:29 23.43444 47.81907 36777 ft 574 kts 94°
2026-04-21 15:29 23.42588 47.90542 36783 ft 573 kts 95°
2026-04-21 15:30 23.41729 47.99165 36784 ft 573 kts 95°
2026-04-21 15:30 23.40866 48.07785 36786 ft 573 kts 95°
2026-04-21 15:31 23.39998 48.16400 36783 ft 573 kts 95°
2026-04-21 15:31 23.39125 48.25017 36771 ft 573 kts 95°
2026-04-21 15:32 23.38255 48.33625 36783 ft 572 kts 94°
2026-04-21 15:32 23.37792 48.42245 36785 ft 570 kts 90°
2026-04-21 15:33 23.37504 48.50813 36789 ft 570 kts 90°
2026-04-21 15:33 23.37192 48.59443 36790 ft 571 kts 90°
2026-04-21 15:34 23.36840 48.68082 36799 ft 572 kts 90°
2026-04-21 15:34 23.36475 48.76724 36789 ft 572 kts 90°
2026-04-21 15:35 23.36108 48.85379 36786 ft 572 kts 90°
2026-04-21 15:35 23.35740 48.94024 36783 ft 572 kts 90°
2026-04-21 15:36 23.35367 49.02668 36783 ft 571 kts 90°
2026-04-21 15:36 23.34976 49.11303 36796 ft 571 kts 91°
2026-04-21 15:37 23.34527 49.19933 36782 ft 571 kts 91°
2026-04-21 15:37 23.34063 49.28557 36791 ft 571 kts 91°
2026-04-21 15:38 23.33603 49.37188 36793 ft 572 kts 91°
2026-04-21 15:38 23.33144 49.45823 36785 ft 572 kts 91°
2026-04-21 15:39 23.32682 49.54463 36788 ft 572 kts 91°
2026-04-21 15:39 23.32214 49.63090 36790 ft 571 kts 91°
2026-04-21 15:40 23.31741 49.71716 36788 ft 571 kts 91°
2026-04-21 15:40 23.31266 49.80277 36789 ft 571 kts 91°
2026-04-21 15:41 23.30785 49.88889 36795 ft 571 kts 91°
2026-04-21 15:41 23.30298 49.97506 36781 ft 571 kts 91°
2026-04-21 15:42 23.29807 50.06120 36798 ft 570 kts 91°
2026-04-21 15:42 23.29311 50.14724 36788 ft 570 kts 91°
2026-04-21 15:43 23.28812 50.23317 36781 ft 569 kts 91°
2026-04-21 15:43 23.28308 50.31898 36791 ft 568 kts 91°
2026-04-21 15:44 23.27801 50.40468 36795 ft 568 kts 91°
2026-04-21 15:44 23.27289 50.49032 36797 ft 567 kts 91°
2026-04-21 15:45 23.26773 50.57585 36790 ft 567 kts 91°
2026-04-21 15:45 23.26252 50.66142 36804 ft 567 kts 91°
2026-04-21 15:46 23.25727 50.74691 36803 ft 567 kts 91°
2026-04-21 15:46 23.25198 50.83236 36793 ft 567 kts 91°
2026-04-21 15:47 23.24663 50.91787 36805 ft 567 kts 91°
2026-04-21 15:47 23.24124 51.00331 36795 ft 566 kts 91°
2026-04-21 15:48 23.23581 51.08865 36803 ft 566 kts 91°
2026-04-21 15:48 23.23034 51.17400 36797 ft 566 kts 91°
2026-04-21 15:49 23.22482 51.25931 36801 ft 566 kts 91°
2026-04-21 15:49 23.21926 51.34464 36800 ft 566 kts 91°
2026-04-21 15:50 23.21365 51.42992 36802 ft 565 kts 91°
2026-04-21 15:50 23.20800 51.51513 36799 ft 565 kts 91°
2026-04-21 15:51 23.20234 51.59980 36813 ft 565 kts 91°
2026-04-21 15:51 23.19659 51.68493 36789 ft 564 kts 91°
2026-04-21 15:52 23.19082 51.76996 36796 ft 564 kts 91°
2026-04-21 15:52 23.18500 51.85491 36809 ft 563 kts 91°
2026-04-21 15:53 23.17914 51.93980 36798 ft 563 kts 91°
2026-04-21 15:53 23.17324 52.02462 36799 ft 563 kts 91°
2026-04-21 15:54 23.16729 52.10941 36803 ft 563 kts 91°
2026-04-21 15:54 23.16131 52.19414 36797 ft 563 kts 92°
2026-04-21 15:55 23.15528 52.27888 36790 ft 562 kts 92°
2026-04-21 15:55 23.15076 52.36357 36786 ft 559 kts 85°
2026-04-21 15:56 23.15977 52.44674 36799 ft 551 kts 73°
2026-04-21 15:56 23.18039 52.52612 36804 ft 546 kts 69°
2026-04-21 15:57 23.19414 52.60797 36797 ft 554 kts 78°
2026-04-21 15:57 23.20363 52.69123 36798 ft 555 kts 78°
2026-04-21 15:58 23.21313 52.77457 36794 ft 556 kts 78°
2026-04-21 15:58 23.22317 52.85726 36785 ft 555 kts 78°
2026-04-21 15:59 23.23351 52.94025 36776 ft 552 kts 78°
2026-04-21 15:59 23.24376 53.02281 36797 ft 551 kts 78°
2026-04-21 16:00 23.25393 53.10535 36800 ft 551 kts 78°
2026-04-21 16:00 23.26400 53.18785 36797 ft 550 kts 78°
2026-04-21 16:01 23.27403 53.27036 36814 ft 550 kts 78°
2026-04-21 16:01 23.28401 53.35278 36802 ft 549 kts 78°
2026-04-21 16:02 23.29392 53.43502 36801 ft 547 kts 78°
2026-04-21 16:02 23.30376 53.51701 36794 ft 546 kts 78°
2026-04-21 16:03 23.31354 53.59886 36802 ft 545 kts 78°
2026-04-21 16:03 23.32327 53.68067 36806 ft 545 kts 78°
2026-04-21 16:04 23.33296 53.76247 36814 ft 545 kts 78°
2026-04-21 16:04 23.34261 53.84425 36804 ft 545 kts 78°
2026-04-21 16:05 23.35221 53.92608 36803 ft 545 kts 78°
2026-04-21 16:05 23.36176 54.00788 36808 ft 545 kts 78°
2026-04-21 16:06 23.37126 54.08966 36802 ft 545 kts 78°
2026-04-21 16:06 23.38072 54.17141 36790 ft 544 kts 78°
2026-04-21 16:07 23.39014 54.25312 36799 ft 544 kts 78°
2026-04-21 16:07 23.39951 54.33482 36801 ft 544 kts 78°
2026-04-21 16:08 23.41346 54.45727 36799 ft 543 kts 78°
2026-04-21 16:09 23.42271 54.53885 36814 ft 543 kts 78°
2026-04-21 16:09 23.43190 54.62037 36793 ft 542 kts 78°
2026-04-21 16:10 23.44104 54.70183 36801 ft 541 kts 78°
2026-04-21 16:10 23.45012 54.78312 36807 ft 540 kts 78°
2026-04-21 16:11 23.45915 54.86434 36794 ft 540 kts 78°
2026-04-21 16:11 23.46805 54.94483 36798 ft 539 kts 78°
2026-04-21 16:12 23.47552 55.01264 36793 ft 537 kts 79°
2026-04-21 16:12 23.48579 55.10627 36795 ft 535 kts 79°
2026-04-21 16:13 23.49454 55.18655 36796 ft 533 kts 79°
2026-04-21 16:13 23.50324 55.26660 36802 ft 531 kts 79°
2026-04-21 16:13 23.50921 55.30595 36785 ft 521 kts 68°
2026-04-21 16:14 23.52327 55.34157 36635 ft 506 kts 51°
2026-04-21 16:14 23.54490 55.37080 36204 ft 489 kts 36°
2026-04-21 16:14 23.56192 55.38647 35892 ft 479 kts 30°
2026-04-21 16:14 23.58973 55.40558 35452 ft 466 kts 20°
2026-04-21 16:15 23.61947 55.41780 34972 ft 450 kts
2026-04-21 16:15 23.64964 55.42602 34546 ft 445 kts
2026-04-21 16:15 23.67963 55.43425 34099 ft 443 kts 10°
2026-04-21 16:15 23.70943 55.44270 33611 ft 442 kts 11°
2026-04-21 16:16 23.73903 55.45134 33128 ft 439 kts 12°
2026-04-21 16:16 23.76841 55.46006 32665 ft 437 kts 12°
2026-04-21 16:16 23.79762 55.46878 32216 ft 434 kts 12°
2026-04-21 16:16 23.82664 55.47744 31780 ft 431 kts 12°
2026-04-21 16:17 23.85545 55.48603 31350 ft 428 kts 13°
2026-04-21 16:17 23.88411 55.49455 30920 ft 426 kts 13°
2026-04-21 16:17 23.91263 55.50302 30493 ft 424 kts 13°
2026-04-21 16:17 23.94103 55.51146 30067 ft 422 kts 13°
2026-04-21 16:18 23.96928 55.51988 29601 ft 420 kts 14°
2026-04-21 16:18 23.99668 55.53082 29106 ft 420 kts 24°
2026-04-21 16:18 24.02213 55.54633 28660 ft 419 kts 31°
2026-04-21 16:18 24.04537 55.56548 28227 ft 418 kts 40°
2026-04-21 16:19 24.06686 55.58667 27816 ft 415 kts 41°
2026-04-21 16:19 24.08801 55.60801 27393 ft 412 kts 41°
2026-04-21 16:19 24.10901 55.62925 26965 ft 410 kts 41°
2026-04-21 16:19 24.12997 55.65033 26553 ft 408 kts 40°
2026-04-21 16:20 24.15088 55.67124 26155 ft 406 kts 40°
2026-04-21 16:20 24.17175 55.69201 25763 ft 405 kts 40°
2026-04-21 16:20 24.19257 55.71268 25347 ft 403 kts 40°
2026-04-21 16:20 24.21333 55.73329 24944 ft 402 kts 40°
2026-04-21 16:21 24.23405 55.75384 24541 ft 401 kts 39°
2026-04-21 16:21 24.25469 55.77433 24119 ft 401 kts 39°
2026-04-21 16:21 24.27507 55.79458 23727 ft 400 kts 39°
2026-04-21 16:21 24.29597 55.81535 23292 ft 400 kts 39°
2026-04-21 16:22 24.31657 55.83583 22838 ft 399 kts 39°
2026-04-21 16:22 24.33709 55.85623 22409 ft 397 kts 39°
2026-04-21 16:22 24.35751 55.87657 22003 ft 395 kts 39°
2026-04-21 16:22 24.37781 55.89677 21599 ft 393 kts 39°
2026-04-21 16:23 24.39802 55.91693 21116 ft 393 kts 39°
2026-04-21 16:23 24.41821 55.93710 20632 ft 392 kts 39°
2026-04-21 16:23 24.43836 55.95724 20162 ft 392 kts 39°
2026-04-21 16:23 24.45847 55.97736 19694 ft 391 kts 39°
2026-04-21 16:24 24.47853 55.99743 19243 ft 390 kts 39°
2026-04-21 16:24 24.49853 56.01746 18787 ft 389 kts 39°
2026-04-21 16:24 24.51850 56.03744 18325 ft 387 kts 39°
2026-04-21 16:24 24.53810 56.05707 17865 ft 386 kts 39°
2026-04-21 16:25 24.55791 56.07689 17352 ft 385 kts 39°
2026-04-21 16:25 24.57769 56.09663 16847 ft 382 kts 39°
2026-04-21 16:25 24.59886 56.11370 16339 ft 376 kts 26°
2026-04-21 16:25 24.62270 56.12499 15846 ft 371 kts 15°
2026-04-21 16:26 24.64768 56.13101 15380 ft 366 kts
2026-04-21 16:26 24.67284 56.13514 14914 ft 365 kts
2026-04-21 16:26 24.69757 56.13941 14432 ft 354 kts
2026-04-21 16:26 24.72147 56.14372 13949 ft 343 kts
2026-04-21 16:27 24.74495 56.14801 13471 ft 343 kts
2026-04-21 16:27 24.76846 56.15102 12963 ft 337 kts 355°
2026-04-21 16:27 24.79093 56.14494 12443 ft 333 kts 330°
2026-04-21 16:27 24.80959 56.13026 11991 ft 329 kts 312°
2026-04-21 16:28 24.82368 56.11053 11515 ft 327 kts 302°
2026-04-21 16:28 24.83632 56.08970 11078 ft 327 kts 302°
2026-04-21 16:28 24.84872 56.06883 10734 ft 324 kts 301°
2026-04-21 16:28 24.86102 56.04816 10429 ft 321 kts 302°
2026-04-21 16:29 24.87320 56.02781 10170 ft 316 kts 302°
2026-04-21 16:29 24.88525 56.00781 9913 ft 311 kts 302°
2026-04-21 16:29 24.89715 55.98815 9659 ft 307 kts 302°
2026-04-21 16:29 24.90892 55.96874 9347 ft 303 kts 302°
2026-04-21 16:30 24.92060 55.94951 8979 ft 302 kts 302°
2026-04-21 16:30 24.93219 55.93043 8611 ft 295 kts 302°
2026-04-21 16:30 24.94339 55.91201 8205 ft 284 kts 302°
2026-04-21 16:30 24.95420 55.89423 7816 ft 276 kts 302°
2026-04-21 16:31 24.96483 55.87673 7461 ft 274 kts 302°
2026-04-21 16:31 24.97543 55.85928 7116 ft 272 kts 302°
2026-04-21 16:31 24.98590 55.84203 6772 ft 271 kts 302°
2026-04-21 16:31 24.99638 55.82477 6477 ft 270 kts 302°
2026-04-21 16:32 25.00640 55.80741 6185 ft 268 kts 300°
2026-04-21 16:32 25.01607 55.78994 5905 ft 266 kts 300°
2026-04-21 16:32 25.02568 55.77262 5623 ft 264 kts 301°
2026-04-21 16:32 25.03526 55.75535 5321 ft 263 kts 301°
2026-04-21 16:33 25.04479 55.73826 5070 ft 260 kts 301°
2026-04-21 16:33 25.05410 55.72159 4831 ft 258 kts 301°
2026-04-21 16:33 25.06344 55.70486 4591 ft 255 kts 302°
2026-04-21 16:33 25.07279 55.68839 4334 ft 252 kts 303°
2026-04-21 16:34 25.08218 55.67215 4078 ft 250 kts 303°
2026-04-21 16:34 25.09135 55.65590 3854 ft 249 kts 302°
2026-04-21 16:34 25.10039 55.63968 3625 ft 248 kts 303°
2026-04-21 16:34 25.10936 55.62351 3380 ft 246 kts 303°
2026-04-21 16:35 25.11831 55.60738 3136 ft 247 kts 303°
2026-04-21 16:35 25.12719 55.59133 2889 ft 244 kts 303°
2026-04-21 16:35 25.13596 55.57549 2653 ft 240 kts 304°
2026-04-21 16:35 25.14460 55.55990 2402 ft 236 kts 304°
2026-04-21 16:36 25.15310 55.54456 2165 ft 231 kts 304°
2026-04-21 16:36 25.16102 55.53025 2155 ft 206 kts 304°
2026-04-21 16:36 25.16817 55.51732 2086 ft 193 kts 305°
2026-04-21 16:36 25.17509 55.50484 2048 ft 189 kts 306°
2026-04-21 16:37 25.18196 55.49247 2015 ft 187 kts 305°
2026-04-21 16:37 25.18852 55.48057 1764 ft 173 kts 306°
2026-04-21 16:37 25.19458 55.46962 1532 ft 160 kts 307°
2026-04-21 16:37 25.20013 55.45964 1367 ft 149 kts 306°
2026-04-21 16:38 25.20559 55.44978 1164 ft 153 kts 306°
2026-04-21 16:38 25.21113 55.43979 969 ft 151 kts 306°
2026-04-21 16:38 25.21659 55.42997 730 ft 148 kts 304°
2026-04-21 16:38 25.22192 55.42020 560 ft 151 kts 302°
2026-04-21 16:39 25.22734 55.41035 368 ft 148 kts 303°
2026-04-21 16:39 25.23276 55.40066 164 ft 149 kts 302°
2026-04-21 16:39 25.23805 55.39093 38 ft 143 kts 302°
2026-04-21 16:39 25.24268 55.38263 31 ft 104 kts 301°
2026-04-21 16:40 25.24539 55.37777 27 ft 33 kts 301°
2026-04-21 16:40 25.24605 55.37561 27 ft 22 kts 278°
2026-04-21 16:40 25.24615 55.37415 27 ft 19 kts 271°
2026-04-21 16:40 25.24625 55.37277 26 ft 16 kts 285°
2026-04-21 16:41 25.24675 55.37170 27 ft 16 kts 301°
2026-04-21 16:41 25.24732 55.37068 27 ft 16 kts 301°
2026-04-21 16:41 25.24763 55.36970 26 ft 13 kts 252°
2026-04-21 16:41 25.24694 55.36909 30 ft 12 kts 211°
2026-04-21 16:42 25.24663 55.36889 29 ft 5 kts 211°
2026-04-21 16:42 25.24630 55.36866 29 ft 7 kts 211°
2026-04-21 16:42 25.24583 55.36835 30 ft 9 kts 212°
2026-04-21 16:42 25.24552 55.36776 29 ft 9 kts 270°
2026-04-21 16:43 25.24526 55.36701 29 ft 13 kts 223°
2026-04-21 16:43 25.24464 55.36634 29 ft 9 kts 235°
2026-04-21 16:43 25.24457 55.36582 28 ft 8 kts 281°
2026-04-21 16:43 25.24484 55.36551 28 ft 2 kts 337°
2026-04-21 16:44 25.24512 55.36552 31 ft 1 kts
2026-04-21 16:44 25.24523 55.36554 31 ft 2 kts
2026-04-21 16:44 25.24534 55.36555 29 ft 0 kts